Probability
68 87 100 100 100 100 100 100 100 100 100 100 100 100 100 100 100 100 100 100 100 100 100 100 100 100 100 100 100 100 100 100 100 100 100 100 100 97 97 87 94 87 97
74 90 100 100 100 100 100 100 100 100 100 100 100 100 100 100 100 100 100 100 100 100 100 100 100 100 100 100 100 100 100 100 100 100 100 100 100 100 94 81 90 94 97
87 100 100 100 100 100 100 100 100 100 100 100 100 100 100 100 100 100 100 100 100 100 100 100 100 100 100 100 100 100 100 100 100 100 97 65 77 94 94 94 94 97 97
90 94 90 100 100 100 100 100 100 100 100 100 100 100 100 100 100 100 100 100 100 100 100 100 100 100 100 100 100 100 100 100 100 100 58 35 48 90 97 97 94 97 94
90 87 100 100 100 100 100 100 100 100 100 100 100 100 100 100 100 100 100 100 100 100 100 100 100 100 100 100 100 100 100 100 90 90 39 32 74 94 97 94 97 94 77
87 90 97 100 100 100 100 100 100 100 100 100 100 100 100 100 100 100 100 100 100 100 100 100 100 100 100 100 100 100 100 90 90 26 32 35 74 97 94 90 87 87 90
84 87 97 100 100 100 100 100 100 100 100 100 100 100 100 100 100 100 100 100 100 100 100 100 100 100 100 100 100 100 94 90 71 29 39 39 81 97 94 94 94 90 77
84 84 97 100 100 100 100 100 100 100 100 100 100 100 100 100 100 100 100 100 100 100 100 100 100 100 100 100 100 97 90 87 65 42 48 42 97 97 94 90 81 84 81
87 87 90 97 100 100 100 100 100 100 97 100 100 100 100 100 100 100 100 100 100 100 100 100 100 100 100 97 97 97 90 87 81 68 52 68 94 100 94 90 81 90 94
87 87 94 87 87 97 97 97 97 97 97 97 97 100 100 100 100 100 100 100 100 100 100 100 97 100 97 97 100 97 97 81 68 61 68 77 97 94 90 94 90 94 90
84 84 87 90 87 84 87 94 97 94 90 94 94 94 100 94 90 97 100 100 100 100 100 97 94 90 94 94 97 97 87 71 65 61 71 97 97 94 94 94 90 94 84
68 71 77 81 81 81 81 90 94 87 90 94 90 87 94 97 94 87 97 100 97 97 97 97 97 87 84 74 84 81 71 65 52 55 84 97 90 97 97 90 90 84 81
65 65 68 71 68 71 81 87 87 90 90 84 87 94 94 94 90 77 84 94 94 94 94 94 97 84 65 52 52 58 52 42 42 42 71 97 94 100 100 94 87 90 84
65 61 61 68 68 68 71 81 84 87 90 94 90 87 94 94 90 87 90 84 90 87 90 94 87 74 71 55 48 42 45 52 48 48 77 94 90 94 97 97 90 90 87
61 58 61 61 65 65 71 77 77 77 81 87 87 97 97 90 97 90 90 90 84 81 84 90 84 77 71 55 58 42 48 45 55 55 77 94 90 94 94 94 94 90 87
55 52 52 65 65 68 68 71 74 71 77 77 77 77 87 90 94 90 87 87 81 81 84 84 84 84 71 74 68 61 65 55 65 68 61 68 74 81 81 87 87 90 74
52 55 52 55 55 65 68 65 61 68 74 71 74 74 71 77 90 87 84 84 84 81 87 84 74 87 74 71 74 65 71 81 74 81 77 77 68 71 77 81 81 77 74
45 48 45 29 39 52 58 61 61 61 68 68 65 65 65 65 74 84 81 81 84 81 77 77 74 74 81 74 71 71 65 77 71 74 65 68 68 65 68 74 77 71 65
39 35 35 29 29 39 55 58 55 55 55 48 55 65 58 61 61 71 81 77 84 77 71 68 68 68 68 68 58 68 58 48 55 45 52 52 61 68 58 52 61 68 58
26 29 23 23 23 29 45 55 52 48 52 48 45 48 58 58 48 52 52 58 58 61 71 71 68 74 71 71 45 35 58 48 48 52 52 48 58 48 48 45 58 58 42
23 19 19 19 23 29 35 39 48 48 42 32 39 39 39 42 45 42 35 42 45 52 42 52 61 61 58 58 52 45 45 42 35 48 45 39 39 42 48 45 45 42 39
23 19 13 13 16 19 29 29 42 32 29 29 32 35 32 35 39 26 39 39 35 39 45 42 45 45 42 48 48 39 23 26 45 26 29 32 35 35 35 29 32 29 29
16 13 6 13 6 10 16 29 26 35 32 35 29 26 19 23 23 29 32 35 35 32 32 39 35 32 39 32 39 45 26 13 10 26 29 29 32 32 29 32 26 29 19
13 13 13 13 13 13 23 16 23 32 26 23 19 16 10 13 16 16 16 23 26 16 19 19 23 32 23 29 35 39 39 32 16 10 23 29 23 29 26 19 19 23 23
16 10 13 13 13 13 16 19 10 13 13 16 10 6 6 6 3 3 6 6 10 13 13 13 19 23 23 23 26 29 29 32 23 26 13 16 23 13 23 26 26 23 23
13 10 10 10 10 10 13 13 10 10 10 6 6 3 3 3 3 3 3 3 3 6 10 6 10 16 19 26 26 23 16 19 19 26 16 19 16 13 16 23 16 16 16
Height
5912 5912 5912 5913 5913 5914 5914 5915 5915 5915 5916 5916 5916 5917 5917 5917 5917 5917 5917 5917 5917 5917 5917 5917 5917 5916 5916 5916 5915 5915 5914 5914 5913 5913 5912 5912 5911 5911 5910 5909 5909 5909 5908
5911 5911 5911 5912 5912 5913 5913 5914 5914 5914 5915 5915 5916 5916 5916 5916 5917 5917 5917 5917 5917 5917 5917 5917 5917 5917 5916 5916 5915 5915 5914 5914 5914 5913 5912 5912 5911 5911 5910 5910 5910 5909 5909
5909 5909 5910 5910 5911 5911 5912 5912 5913 5913 5914 5914 5914 5915 5915 5916 5916 5916 5917 5917 5917 5917 5917 5917 5917 5917 5916 5916 5915 5915 5914 5914 5914 5913 5912 5912 5911 5911 5911 5910 5910 5910 5909
5908 5908 5908 5909 5910 5910 5910 5911 5911 5912 5913 5913 5913 5914 5914 5915 5915 5916 5916 5916 5916 5916 5916 5916 5916 5916 5916 5916 5915 5915 5914 5914 5913 5913 5912 5912 5911 5911 5911 5911 5910 5910 5910
5905 5906 5906 5907 5908 5908 5909 5909 5910 5910 5911 5912 5912 5912 5913 5913 5914 5914 5915 5915 5915 5915 5915 5915 5915 5915 5915 5915 5914 5914 5914 5913 5913 5912 5912 5912 5911 5911 5911 5911 5910 5910 5910
5903 5903 5904 5904 5905 5906 5906 5907 5908 5908 5909 5910 5910 5911 5911 5912 5912 5913 5913 5914 5914 5914 5914 5914 5914 5914 5914 5913 5913 5913 5913 5913 5912 5912 5912 5911 5911 5911 5911 5910 5910 5910 5910
5900 5900 5901 5901 5902 5903 5903 5904 5905 5905 5906 5907 5908 5908 5909 5909 5910 5911 5911 5912 5912 5912 5912 5912 5912 5912 5912 5912 5912 5912 5912 5912 5911 5911 5911 5911 5910 5910 5910 5910 5910 5910 5909
5897 5897 5897 5897 5898 5899 5900 5901 5902 5902 5903 5904 5905 5906 5906 5907 5908 5908 5909 5910 5910 5911 5911 5911 5911 5911 5911 5911 5911 5911 5911 5910 5910 5910 5909 5909 5909 5909 5909 5909 5909 5909 5909
5893 5894 5893 5893 5894 5895 5896 5897 5898 5899 5899 5900 5901 5902 5903 5904 5905 5906 5907 5907 5908 5908 5909 5909 5909 5909 5909 5909 5909 5909 5909 5909 5909 5908 5908 5908 5908 5908 5908 5908 5908 5908 5908
5890 5890 5890 5890 5890 5891 5891 5892 5894 5895 5896 5897 5898 5899 5900 5901 5902 5903 5904 5905 5905 5906 5906 5906 5906 5907 5906 5906 5907 5907 5907 5907 5907 5906 5906 5906 5906 5906 5906 5906 5906 5906 5906
5886 5886 5886 5885 5886 5886 5887 5888 5889 5890 5891 5893 5894 5895 5896 5897 5898 5899 5900 5901 5902 5903 5903 5904 5904 5904 5904 5904 5904 5904 5904 5904 5904 5904 5904 5904 5904 5904 5904 5904 5904 5904 5904
5883 5883 5882 5882 5882 5882 5882 5884 5884 5885 5886 5888 5890 5891 5892 5893 5894 5895 5896 5897 5899 5900 5900 5901 5901 5901 5901 5901 5901 5901 5901 5901 5901 5901 5902 5902 5902 5902 5902 5902 5902 5902 5902
5879 5879 5878 5878 5878 5878 5879 5880 5880 5881 5882 5883 5885 5886 5888 5889 5890 5891 5892 5893 5894 5896 5896 5897 5897 5897 5898 5898 5898 5898 5898 5898 5898 5898 5899 5899 5899 5899 5899 5899 5899 5899 5899
5875 5875 5874 5874 5874 5874 5874 5875 5876 5877 5878 5879 5880 5882 5883 5884 5886 5887 5888 5889 5890 5891 5892 5893 5893 5894 5894 5894 5895 5895 5895 5895 5895 5895 5895 5895 5895 5895 5896 5896 5896 5896 5896
5871 5871 5870 5870 5870 5869 5869 5870 5871 5871 5872 5874 5876 5877 5878 5880 5881 5883 5884 5884 5885 5887 5888 5888 5889 5889 5890 5890 5891 5891 5891 5891 5891 5891 5891 5891 5892 5892 5892 5892 5892 5892 5893
5867 5867 5867 5867 5866 5866 5866 5866 5866 5866 5867 5870 5871 5873 5874 5875 5877 5878 5879 5880 5881 5882 5883 5884 5885 5885 5886 5886 5886 5886 5887 5887 5887 5887 5887 5887 5887 5887 5888 5888 5888 5889 5889
5864 5863 5863 5862 5862 5862 5861 5861 5862 5863 5863 5865 5866 5868 5869 5870 5872 5873 5875 5876 5876 5877 5878 5879 5880 5880 5881 5882 5882 5882 5882 5882 5882 5883 5883 5883 5883 5883 5883 5884 5884 5884 5884
5860 5859 5859 5858 5857 5857 5857 5857 5858 5858 5859 5860 5861 5863 5864 5865 5867 5868 5869 5870 5871 5872 5873 5874 5875 5876 5876 5877 5877 5877 5877 5878 5878 5878 5878 5878 5878 5878 5879 5879 5879 5880 5880
5856 5855 5854 5853 5853 5852 5852 5852 5853 5853 5854 5856 5857 5858 5859 5860 5862 5863 5864 5865 5866 5867 5868 5869 5870 5871 5872 5872 5872 5872 5872 5872 5872 5872 5873 5873 5873 5873 5874 5874 5874 5874 5875
5852 5851 5850 5849 5849 5848 5848 5849 5849 5849 5850 5851 5852 5854 5855 5856 5857 5858 5859 5859 5860 5862 5863 5864 5864 5865 5866 5866 5866 5866 5867 5867 5867 5867 5867 5867 5867 5868 5868 5868 5868 5869 5869
5848 5847 5846 5845 5845 5845 5845 5845 5845 5845 5846 5847 5848 5849 5849 5851 5852 5853 5853 5854 5855 5856 5857 5857 5858 5858 5859 5860 5860 5860 5861 5861 5861 5861 5861 5861 5862 5862 5862 5862 5862 5863 5863
5844 5843 5842 5841 5841 5841 5840 5840 5841 5841 5842 5843 5843 5844 5845 5846 5846 5847 5847 5848 5848 5849 5850 5850 5851 5852 5853 5853 5854 5854 5855 5855 5855 5855 5855 5855 5855 5855 5856 5856 5856 5857 5857
5840 5839 5839 5838 5838 5838 5837 5836 5836 5837 5837 5838 5838 5839 5840 5840 5840 5841 5841 5841 5842 5843 5844 5844 5844 5845 5846 5846 5846 5847 5848 5848 5848 5849 5848 5848 5848 5849 5849 5849 5850 5850 5851
5836 5836 5835 5835 5834 5834 5833 5832 5832 5832 5832 5833 5833 5834 5834 5834 5835 5835 5835 5835 5836 5836 5837 5837 5838 5838 5839 5839 5840 5840 5840 5841 5841 5842 5842 5842 5842 5842 5842 5843 5843 5844 5844
5832 5832 5831 5831 5830 5830 5829 5828 5827 5827 5828 5828 5828 5829 5829 5829 5829 5829 5829 5829 5830 5830 5830 5830 5830 5831 5831 5832 5832 5832 5833 5834 5834 5835 5835 5835 5835 5835 5835 5836 5836 5837 5837
5828 5827 5827 5826 5826 5826 5825 5824 5824 5823 5823 5823 5823 5823 5823 5823 5823 5822 5822 5823 5823 5823 5823 5823 5823 5823 5824 5825 5825 5826 5826 5827 5827 5827 5827 5828 5828 5828 5829 5829 5829 5830 5830
Wind_Speed
3 3 3 2 2 3 4 5 5 5 5 5 5 5 5 5 4 4 4 5 5 5 6 6 6 7 7 7 6 6 5 5 5 4 4 4 4 4 3 3 2 2 1
5 4 4 4 4 4 5 6 7 7 6 6 5 5 5 4 4 3 3 3 4 4 4 5 5 5 6 6 6 6 5 4 4 4 4 3 3 3 3 3 2 1 1
7 6 5 5 5 5 6 7 8 8 8 7 6 6 5 5 4 4 3 2 2 2 3 4 4 4 4 5 5 5 4 4 4 4 4 3 3 3 2 2 2 1 0
8 7 6 5 6 6 7 8 9 9 9 8 8 7 6 6 5 4 3 2 1 1 1 2 2 3 3 4 4 4 4 4 4 3 3 3 3 2 1 1 1 0 0
8 8 8 7 8 8 9 10 11 11 10 10 9 9 8 7 6 6 5 4 3 2 1 1 2 2 2 3 3 4 4 4 4 3 3 3 2 2 1 1 1 1 1
9 9 9 9 9 9 11 12 12 12 12 12 12 11 10 9 8 7 6 6 5 4 3 3 3 3 3 3 3 4 4 4 4 4 3 3 3 3 2 2 2 2 2
11 10 9 10 10 11 12 13 13 13 14 14 13 13 12 11 10 9 9 8 7 7 6 6 5 5 5 5 4 4 4 4 4 4 4 4 3 3 3 3 3 3 3
11 11 11 11 11 12 13 14 15 15 15 16 15 15 14 13 13 12 11 10 10 9 9 8 8 7 7 7 7 6 6 5 5 5 5 5 4 4 4 4 4 3 3
12 12 12 12 12 13 14 15 16 17 17 18 18 17 17 16 15 15 14 13 12 12 11 11 10 9 9 9 8 8 8 8 7 7 7 6 6 6 6 6 5 5 4
13 13 12 13 14 15 16 17 18 19 19 19 20 20 19 19 18 17 16 15 14 13 13 12 12 11 11 10 10 10 10 10 9 9 9 8 8 8 7 7 7 7 6
15 14 14 14 15 17 18 19 20 21 21 21 21 22 21 21 20 19 18 17 16 15 14 14 13 13 13 12 12 12 12 11 11 11 11 10 10 9 9 8 9 9 8
16 16 16 15 16 17 19 20 21 23 23 22 22 23 23 22 22 21 20 19 17 17 16 15 15 15 14 14 14 14 14 13 13 13 13 12 12 12 11 11 11 11 11
16 16 16 17 17 18 20 22 22 23 24 24 24 25 24 24 23 22 22 21 19 19 18 17 16 16 16 16 16 15 15 15 15 15 15 14 14 14 13 13 13 12 12
16 15 15 16 17 19 21 24 24 24 25 26 26 26 25 25 24 24 23 22 21 20 19 19 18 18 18 17 17 17 17 16 16 17 16 16 16 16 15 15 15 15 14
14 14 15 16 17 19 21 23 25 25 26 27 26 26 26 26 25 25 25 24 23 22 21 21 20 20 19 19 18 18 18 18 17 18 18 18 18 17 17 17 17 17 16
14 15 15 17 17 19 21 22 24 26 26 27 27 27 27 26 26 25 25 25 24 23 23 22 22 22 21 20 20 20 20 20 19 19 19 20 20 19 18 18 19 19 19
15 15 17 17 19 20 22 23 24 24 25 26 26 26 27 27 27 26 26 26 25 25 25 25 24 23 23 22 22 21 21 21 20 20 21 21 21 21 20 19 20 20 21
16 17 17 18 19 20 23 23 25 25 25 26 26 26 26 26 27 27 27 27 27 26 26 26 26 25 25 24 24 24 23 23 22 22 22 22 23 22 22 22 21 22 22
17 17 18 19 18 19 22 23 24 24 26 26 25 25 26 26 27 28 28 27 27 27 27 27 27 27 26 26 26 25 25 24 24 24 23 23 23 24 24 23 23 23 23
18 19 19 19 18 18 20 21 22 23 25 26 26 26 27 27 27 28 28 28 28 28 28 28 28 28 28 28 27 27 27 26 26 25 25 25 25 25 25 25 25 25 24
17 18 18 19 18 18 18 19 21 22 23 25 25 25 26 27 28 28 27 28 28 28 28 29 30 29 29 29 29 28 28 28 27 27 27 27 27 27 26 26 27 26 26
17 16 16 17 17 17 18 19 21 22 23 24 25 26 26 26 26 26 27 28 28 28 29 29 29 30 29 29 30 30 29 28 28 28 28 28 28 28 28 28 28 28 28
16 16 15 16 16 17 17 19 21 22 22 23 25 25 26 27 27 27 28 28 29 29 29 30 29 30 30 30 30 30 29 29 29 29 29 29 29 29 30 30 29 29 29
16 16 16 16 16 17 17 17 19 20 21 22 23 24 25 26 26 27 28 29 29 29 29 29 30 30 30 31 31 32 32 31 31 30 29 29 30 31 30 31 31 30 31
18 18 18 17 17 18 17 17 19 20 21 21 22 24 24 25 26 27 28 29 29 30 30 30 30 30 30 30 32 32 32 32 31 31 30 30 30 31 31 31 31 31 32
19 19 19 18 19 19 18 18 19 21 22 22 23 24 25 26 27 28 29 30 30 30 30 30 30 30 30 30 30 31 31 31 31 32 31 31 31 31 31 31 31 31 31
Wind_Direction
215 194 194 205 216 220 225 224 214 206 201 194 186 173 157 145 133 118 99 82 71 62 56 52 48 45 42 39 39 42 41 40 40 43 44 49 50 46 45 51 53 51 64
231 213 205 215 223 229 232 231 223 217 209 202 196 187 176 167 156 140 115 94 77 63 53 46 43 41 40 39 38 39 40 36 33 36 36 39 38 36 35 37 40 42 51
241 232 220 221 227 233 236 236 232 223 217 210 203 196 192 190 182 169 149 122 93 67 52 42 35 34 33 32 29 30 33 31 24 23 25 25 23 26 29 26 25 29 28
246 246 240 239 237 239 241 240 237 228 221 216 210 205 205 207 204 194 186 174 152 80 28 22 17 18 16 14 15 14 15 18 11 7 4 3 2 0 8 9 2 356 305
251 253 253 253 249 246 243 241 236 231 225 221 217 215 213 214 214 210 208 211 212 225 275 307 328 342 346 351 356 359 359 358 354 344 336 336 330 316 310 304 307 268 225
257 257 260 261 257 251 245 239 234 231 227 223 221 221 220 218 218 217 218 222 226 234 248 264 280 291 298 308 323 331 336 339 336 330 315 304 298 290 280 274 272 255 229
263 264 267 265 258 255 247 242 237 233 229 224 224 224 225 224 222 222 225 228 233 238 245 255 264 272 276 279 287 295 303 311 315 308 305 288 284 277 270 268 258 253 243
271 273 269 263 259 253 245 240 239 235 230 227 225 226 227 227 227 227 230 232 235 239 245 251 257 262 266 271 275 278 281 284 290 289 287 280 276 275 266 262 259 252 250
275 275 271 264 261 253 247 239 237 234 231 229 226 227 229 229 230 232 233 235 237 240 245 251 256 260 261 265 269 272 272 273 275 277 278 276 272 266 263 256 254 252 250
271 269 267 262 258 251 245 240 238 235 231 231 229 230 231 232 233 235 237 238 238 240 243 248 253 257 259 260 263 266 267 267 268 271 272 271 269 266 262 256 252 250 248
269 266 263 261 255 251 245 243 241 236 233 233 232 232 233 235 235 236 239 240 240 240 243 247 252 254 256 258 259 261 264 265 264 267 270 270 268 266 262 258 255 253 248
270 266 263 259 254 249 246 245 241 237 235 234 234 235 237 237 237 236 239 241 242 243 246 249 250 254 255 257 258 259 261 264 264 264 267 270 269 268 264 260 258 256 250
269 266 260 254 252 249 248 245 240 238 237 235 234 237 240 239 238 238 239 242 244 245 248 250 251 254 255 257 258 260 261 264 265 263 265 268 268 267 267 264 260 258 252
271 266 261 255 250 250 249 244 239 241 240 237 237 239 241 239 239 241 242 243 246 248 249 250 252 254 255 257 259 261 262 264 265 263 262 264 266 265 266 265 262 260 257
269 266 261 257 252 250 247 245 242 241 241 239 239 240 240 241 241 243 245 246 249 250 250 250 251 254 257 259 260 261 260 261 263 263 263 263 264 263 264 265 264 262 259
264 262 260 254 252 250 248 246 244 243 243 242 240 241 241 241 242 244 246 248 250 252 252 252 253 255 257 259 261 262 263 264 264 265 265 264 262 261 261 263 264 263 261
261 259 257 255 255 255 252 248 242 242 244 243 242 242 242 242 244 246 248 250 252 253 253 254 256 258 259 260 261 261 263 265 265 265 266 266 263 262 262 264 267 267 265
262 259 257 258 256 255 251 248 248 245 245 246 244 242 243 246 247 248 251 251 253 255 255 257 258 259 260 261 262 262 263 265 266 267 266 267 264 262 262 264 267 269 266
261 261 261 260 258 257 252 250 250 248 248 246 244 243 245 248 250 250 251 253 253 255 257 258 259 260 260 262 263 264 265 266 266 267 267 267 265 263 263 264 265 267 266
264 265 264 262 259 257 254 251 249 248 247 245 246 247 247 249 251 254 254 255 256 257 259 260 261 261 262 262 263 265 265 266 266 268 267 266 264 262 263 264 264 266 265
265 265 261 259 258 257 253 251 249 248 249 249 249 249 251 252 253 254 255 257 258 259 261 262 261 262 263 263 264 265 265 265 266 267 268 268 265 263 263 265 265 265 263
268 266 261 259 258 259 257 255 252 251 252 253 253 253 253 255 256 257 260 260 260 261 262 263 263 263 263 264 265 265 265 265 266 267 268 267 265 263 262 263 265 265 264
267 266 265 263 261 264 263 259 254 252 253 255 256 256 256 257 259 261 262 263 263 264 265 266 265 265 264 265 265 266 266 266 266 266 267 267 266 264 263 262 263 266 264
272 271 268 267 267 268 267 264 258 257 259 260 258 259 259 260 261 263 264 265 265 266 267 267 266 267 267 265 265 265 264 264 266 266 266 266 266 265 264 263 263 265 264
271 271 271 270 269 270 269 267 264 264 263 262 263 263 264 264 264 264 264 265 267 267 268 268 268 267 268 267 265 265 264 265 266 266 266 266 267 266 265 265 264 264 264
270 270 269 269 270 270 269 269 267 267 266 266 266 266 266 266 265 265 265 266 266 267 268 269 268 267 266 266 266 265 265 266 268 266 265 265 266 267 266 265 265 265 265